SCP
1 1 0 0 0 0 0 0 0 0 0 0 0 0 0 0 0 0 0 0 0 0 0 0 0 0 0 0 0 0 0 0 0 0 0 0 0 0 0 0 0 0 0
1 1 0 0 0 0 0 0 0 0 0 0 0 0 0 0 0 0 0 0 0 0 0 0 0 0 0 0 0 0 0 0 0 0 0 0 0 0 0 0 0 0 0
1 1 0 0 0 0 0 0 0 0 0 0 0 0 0 0 0 0 0 0 0 0 0 0 0 0 0 0 0 0 0 0 0 0 0 0 0 0 0 0 0 0 0
1 1 0 0 0 0 0 0 0 0 0 0 0 0 0 0 0 0 0 0 0 0 0 0 0 0 0 0 0 0 0 0 0 0 0 0 0 0 0 0 0 0 0
1 0 0 0 0 0 0 0 0 0 0 0 0 0 0 0 0 0 0 0 0 0 0 0 0 0 0 0 0 0 0 0 0 0 0 0 0 0 0 0 0 0 0
0 0 0 0 0 0 0 0 0 0 0 0 0 0 0 0 0 0 0 0 0 0 0 0 0 0 0 0 0 0 0 0 0 0 0 0 0 0 0 0 0 0 0
0 0 0 0 0 0 0 0 0 0 0 0 0 0 0 0 0 0 0 0 0 0 0 0 0 0 0 0 0 0 0 0 0 0 0 0 0 0 0 0 0 0 0
0 0 0 0 0 0 0 0 0 0 0 0 0 0 0 0 0 0 0 0 0 0 0 0 0 0 0 0 0 0 0 0 0 0 0 0 0 0 0 0 0 0 0
0 0 0 0 0 0 0 0 0 0 0 0 0 0 0 0 0 0 0 0 0 0 0 0 0 0 0 0 0 0 0 0 0 0 0 0 0 0 0 0 0 0 0
0 0 0 0 0 0 0 0 0 0 0 0 0 0 0 0 0 0 0 0 0 0 0 0 0 0 0 0 0 0 0 0 0 0 0 0 0 0 0 0 0 0 0
0 0 0 0 0 0 0 0 0 0 0 0 0 0 0 0 0 0 0 0 0 0 0 0 0 0 0 0 0 0 0 0 0 0 0 0 0 0 0 0 0 0 0
0 0 0 0 0 0 0 0 0 0 0 0 0 0 0 0 0 0 0 0 0 0 0 0 0 0 0 0 0 0 0 0 0 0 0 0 0 0 0 0 0 0 0
0 0 0 0 0 0 0 0 0 0 0 0 0 0 0 0 0 0 0 0 0 0 0 0 0 0 0 0 0 0 0 0 0 0 0 0 0 0 0 0 0 0 0
0 0 0 0 0 0 0 0 0 0 0 0 0 0 0 0 0 0 0 0 0 0 0 0 0 0 0 0 0 0 0 0 0 0 0 0 0 0 0 0 0 0 0
0 0 0 0 0 0 0 0 0 0 0 0 0 0 0 0 0 0 0 0 0 0 0 0 0 0 0 0 0 0 0 0 0 0 0 0 0 0 0 0 0 0 0
0 0 0 0 0 0 0 0 0 0 0 0 0 0 0 0 0 0 0 0 0 0 0 0 0 0 0 0 0 0 0 0 0 0 0 0 0 0 0 0 0 0 0
0 0 0 0 0 0 0 0 0 0 0 0 0 0 0 0 0 0 0 0 0 0 0 0 0 0 0 0 0 0 0 0 0 0 0 0 0 0 0 0 0 0 0
0 0 0 0 0 0 0 0 0 0 0 0 0 0 0 0 0 0 0 0 0 0 0 0 0 0 0 0 0 0 0 0 0 0 0 0 0 0 0 0 0 0 0
0 0 0 0 0 0 0 0 0 0 0 0 0 0 0 0 0 0 0 0 0 0 0 0 0 0 0 0 0 0 0 0 0 0 0 0 0 0 0 0 0 0 0
0 0 0 0 0 0 0 0 0 0 0 0 0 0 0 0 0 0 0 0 0 0 0 0 0 0 0 0 0 0 0 0 0 0 0 0 0 0 0 0 0 0 0
0 0 0 0 0 0 0 0 0 0 0 0 0 0 0 0 0 0 0 0 0 0 0 0 0 0 0 0 0 0 0 0 0 0 0 0 0 0 0 0 0 0 0
0 0 0 0 0 0 0 0 0 0 0 0 0 0 0 0 0 0 0 0 0 0 0 0 0 0 0 0 0 0 0 0 0 0 0 0 0 0 0 0 0 0 0
0 0 0 0 0 0 0 0 0 0 0 0 0 0 0 0 0 0 0 0 0 0 0 0 0 0 0 0 0 0 0 0 0 0 0 0 0 0 0 0 0 0 0
0 0 0 0 0 0 0 0 0 0 0 0 0 0 0 0 0 0 0 0 0 0 0 0 0 0 0 0 0 0 0 0 0 0 0 0 0 0 0 0 0 0 0
0 0 0 0 0 0 0 0 0 0 0 0 0 0 0 0 0 0 0 0 0 0 0 0 0 0 0 0 0 0 0 0 0 0 0 0 0 0 0 0 0 0 0
0 0 0 0 0 0 0 0 0 0 0 0 0 0 0 0 0 0 0 0 0 0 0 0 0 0 0 0 0 0 0 0 0 0 0 0 0 0 0 0 0 0 0
Wind_Speed
8 7 7 6 6 5 5 4 4 3 4 4 3 3 3 3 3 3 4 4 4 4 4 4 5 4 3 3 3 3 3 3 4 5 3 3 4 5 5 4 4 5 5
8 7 7 6 6 5 5 4 4 4 4 4 4 4 4 4 4 4 5 4 4 5 5 5 5 4 4 4 3 4 4 4 4 6 4 3 4 5 5 5 5 4 5
8 8 7 6 6 6 6 5 5 5 4 4 4 4 5 5 4 5 5 5 5 5 5 5 6 5 5 4 5 5 4 5 4 4 4 3 3 4 4 4 4 4 5
8 8 7 7 7 7 6 6 5 5 5 5 5 5 5 5 5 5 5 5 5 5 5 5 6 6 6 6 5 6 5 5 4 4 4 4 3 4 2 3 4 3 3
8 8 8 7 7 6 6 6 6 5 6 6 5 5 5 5 5 5 5 5 5 5 5 5 6 8 10 8 6 5 5 4 4 4 4 3 3 3 3 3 3 3 4
9 8 8 7 7 6 6 6 6 6 5 5 5 6 6 5 7 9 7 5 5 6 6 6 6 8 10 11 11 10 9 7 6 5 4 5 6 5 4 3 3 2 4
9 8 8 7 7 7 7 6 6 6 6 6 6 6 6 8 11 11 12 7 6 6 6 6 6 7 8 6 8 10 9 11 11 7 7 8 7 6 5 5 4 5 5
9 8 8 8 8 7 6 7 7 5 5 5 6 7 6 8 11 12 13 8 6 7 7 7 7 8 8 8 7 7 7 7 8 7 7 9 8 7 7 6 6 5 5
9 9 9 8 8 7 7 7 6 5 5 6 5 7 7 8 11 13 11 5 6 8 8 7 7 8 11 12 7 7 8 7 10 12 12 11 12 12 9 4 4 4 5
11 10 8 8 8 8 9 7 6 6 7 6 7 7 8 9 11 13 12 5 6 7 6 7 10 10 11 10 6 6 8 8 7 7 7 7 8 9 11 8 6 6 5
8 7 7 7 8 8 7 6 6 6 6 6 7 8 8 10 11 14 12 7 7 7 6 6 6 11 11 11 8 7 10 9 5 6 6 6 5 5 6 6 7 7 7
6 6 6 6 6 6 6 6 6 6 7 7 7 8 7 8 10 11 14 14 11 7 7 6 7 11 12 11 8 10 13 10 5 4 5 6 6 6 6 7 8 9 9
4 4 4 4 5 4 5 6 5 5 6 6 6 7 8 6 7 13 14 14 14 9 7 10 11 12 11 9 12 15 11 6 5 6 7 8 7 7 6 5 6 7 8
4 4 3 3 4 4 4 5 5 5 6 7 7 8 8 6 6 6 6 6 9 8 7 8 10 11 10 11 11 9 7 6 7 8 7 7 5 5 5 5 5 5 5
3 3 3 4 4 5 5 5 7 7 8 9 8 8 7 8 10 12 8 6 6 6 4 2 3 4 5 5 6 6 6 5 7 8 7 7 6 6 6 5 5 4 5
2 2 3 3 3 4 5 7 10 12 15 16 17 14 10 13 14 13 14 13 11 8 5 4 5 6 7 7 7 7 6 6 7 7 7 8 7 7 7 5 5 5 6
1 2 3 3 4 4 5 6 8 9 12 14 16 16 16 16 15 13 13 11 9 9 5 6 7 7 7 7 7 7 7 7 6 7 7 8 7 7 7 6 5 5 6
3 4 4 4 4 5 5 6 6 7 8 8 10 12 14 15 15 13 10 7 5 6 6 7 8 8 7 7 7 7 7 6 6 6 7 7 7 7 7 7 6 7 7
3 3 4 4 5 5 6 6 6 8 8 8 7 8 10 10 10 9 9 6 7 7 8 8 8 8 7 7 7 7 7 7 7 6 6 7 7 6 7 7 7 9 8
3 7 7 5 5 5 6 6 6 7 7 7 7 7 5 3 3 4 6 6 7 7 7 7 7 7 7 7 7 6 6 6 6 6 6 6 6 6 7 8 7 6 6
3 5 9 6 5 6 6 6 7 7 7 7 7 8 8 5 6 7 6 7 8 8 8 7 7 7 6 6 6 6 7 6 5 5 5 5 5 5 6 6 6 6 6
3 4 5 6 6 6 6 6 6 6 7 8 7 7 9 6 6 6 6 6 6 6 7 6 6 6 5 5 5 5 5 5 5 5 5 4 4 5 5 5 5 5 5
4 5 5 6 6 7 7 6 6 6 7 7 7 6 5 5 5 6 6 6 5 5 5 5 5 4 4 4 4 4 4 5 5 4 4 4 4 4 4 5 6 5 5
5 5 6 6 6 5 6 6 7 7 7 7 7 6 5 5 5 6 5 4 4 4 4 3 3 4 4 3 2 2 2 3 3 4 5 5 4 4 4 4 5 6 5
5 5 5 5 6 6 6 6 6 7 7 7 6 6 5 5 4 4 3 3 3 3 3 2 2 2 3 3 2 2 3 4 3 3 4 4 5 5 4 4 4 5 5
5 5 5 5 5 5 6 6 7 7 7 6 6 5 4 4 3 2 2 1 2 2 2 1 2 2 1 1 2 2 3 4 4 4 4 4 5 5 4 4 4 4 5
Wind_Direction
168 166 162 171 173 171 175 189 194 201 201 204 215 226 240 250 252 245 249 252 250 260 265 256 259 258 256 257 250 239 228 207 246 269 258 272 282 286 294 287 274 263 260
171 169 171 174 173 177 189 201 198 203 210 212 216 225 238 243 244 242 250 250 241 248 255 255 260 262 257 255 250 248 245 229 227 263 276 278 273 274 275 280 277 267 256
169 170 174 179 181 191 201 205 204 206 214 220 218 227 238 244 243 241 239 244 242 243 245 246 253 254 258 256 251 249 249 253 228 239 263 263 272 278 287 287 280 275 268
169 172 180 189 192 198 202 204 207 207 212 221 224 229 234 237 238 241 242 241 243 246 247 245 247 244 246 250 251 246 246 251 245 243 256 264 268 278 277 283 295 287 280
168 177 190 194 195 197 202 208 213 215 219 219 224 233 234 233 234 231 232 233 237 247 254 252 251 255 253 250 249 240 238 238 241 243 253 263 266 274 265 260 271 286 282
173 186 191 190 193 199 206 212 216 223 227 224 226 231 237 237 236 230 220 227 233 240 252 259 264 268 269 268 266 258 237 228 228 230 239 242 251 247 247 250 258 278 288
180 187 188 190 197 206 209 209 216 221 224 226 230 232 238 244 247 247 240 224 229 237 243 253 266 269 270 266 270 274 267 251 233 222 230 239 242 237 235 250 244 239 244
187 193 194 194 202 208 208 214 218 216 218 226 233 237 241 249 248 249 246 231 232 240 240 241 248 261 267 260 259 263 259 258 247 235 228 237 240 236 226 233 240 252 258
195 201 202 197 201 205 211 219 218 214 223 226 231 236 241 253 252 252 243 223 234 246 246 245 241 250 262 265 256 255 262 265 263 252 239 241 245 245 235 230 240 241 260
204 206 202 198 201 208 214 216 214 214 225 230 238 238 239 248 253 252 239 215 234 249 253 251 248 249 257 264 245 240 253 259 262 270 265 264 257 256 249 228 222 228 237
203 198 199 202 206 212 217 218 219 224 232 237 243 247 245 247 255 254 241 211 223 238 247 251 248 248 252 257 247 232 243 252 254 250 257 261 261 253 247 234 223 221 223
182 190 200 207 213 215 217 228 229 228 237 245 249 258 257 253 249 251 243 227 221 222 238 244 247 252 253 255 253 248 254 258 250 248 254 257 255 254 249 240 233 230 230
170 189 206 214 223 222 220 231 237 234 238 247 247 254 260 254 250 247 245 238 229 222 236 242 249 257 260 261 258 257 258 247 233 241 249 252 248 247 249 250 249 240 240
179 200 208 219 238 244 240 236 238 243 246 251 250 252 255 253 249 244 236 234 233 231 240 251 259 263 261 258 262 262 246 230 226 238 244 250 248 243 244 241 246 242 241
191 211 225 233 243 255 257 249 248 246 242 243 250 246 245 250 246 229 214 218 214 217 208 241 255 260 260 260 259 255 247 235 234 238 241 247 247 244 246 236 232 228 229
209 245 255 258 262 265 273 282 266 260 266 256 252 250 250 245 249 240 227 223 214 187 173 229 247 250 254 258 260 261 250 239 237 235 236 238 241 242 246 239 224 223 230
248 263 268 271 272 273 273 274 286 290 279 270 263 258 251 253 250 242 232 223 208 176 198 235 245 250 252 252 252 254 255 248 237 233 235 235 235 236 236 236 229 227 232
317 293 285 274 273 273 273 272 271 280 288 286 278 267 258 253 249 242 223 183 199 199 222 235 243 247 248 250 252 252 255 254 244 238 235 233 230 229 231 232 229 226 230
331 313 298 288 282 279 279 277 278 279 277 277 280 282 273 263 254 239 191 192 219 225 226 234 239 243 246 248 250 250 250 251 248 239 235 232 227 223 228 230 228 228 225
321 317 317 303 295 293 290 287 286 283 279 275 273 271 269 251 240 226 204 213 227 236 236 237 241 242 244 248 249 248 249 251 250 244 240 235 226 220 225 226 223 221 219
306 308 313 312 299 292 290 288 286 284 282 277 274 271 257 238 237 233 224 219 223 231 236 238 241 242 244 245 245 244 244 250 248 244 242 237 227 222 224 223 224 219 215
286 290 294 295 294 293 293 290 288 289 289 287 283 281 267 247 238 236 233 230 228 228 231 233 238 238 239 238 237 237 242 248 250 246 243 238 230 226 223 222 222 219 212
281 289 292 293 293 296 299 297 295 290 286 285 282 276 264 252 245 240 238 237 236 236 232 226 232 243 244 237 232 230 237 245 246 248 248 246 239 231 224 224 221 215 212
279 285 290 295 296 295 298 299 298 296 292 290 285 276 265 256 254 249 244 241 236 233 230 226 227 240 250 249 236 233 245 258 263 257 254 249 245 235 226 226 223 217 216
279 284 289 292 296 297 298 299 298 297 296 292 285 279 270 261 261 255 248 239 224 220 223 223 220 230 242 244 243 261 276 282 281 282 269 256 249 239 228 227 224 216 207
283 287 291 295 298 300 301 300 299 299 297 296 294 290 283 276 274 274 268 257 243 229 219 213 220 222 231 245 263 283 285 288 290 288 280 265 255 247 234 231 229 219 207